Terminal Aerodrome Forecast
Issued by NWS

Home | Current Version | Previous Version | Text Only | Print | Product List | Glossary On
Versions: 1 2 3 4 5 6 7 8 9 10 11 12 13 14 15
000
FTAK31 PAJN 281122
TAFAGY
TAF
PAGY 281122Z 2812/0112 03010KT P6SM OVC080
     FM281500 03012G22KT P6SM OVC080
     FM010000 02018G28KT P6SM BKN080
      AMD LTD TO CLD VIS AND WIND=

USA.gov is the U.S. government's official web portal to all federal, state and local government web resources and services.